• In Romania
  • List of Countries
  • For 7 days
  • Water Temperature
  • Satellite Maps
  • Weather Map
  • Weather Widgets
  • user-avatar
    Login

    Hourly Weather Barinas

    Today, 16 November, Friday

    Time Temperature Precipitation Wind Pressure Humidity
    00:00 +27°C° 1.3 mm 1 mps 742 mmHg 83%
    01:00 +26°C° 1.3 mm 1 mps 742 mmHg 83%
    02:00 +26°C° 1.6 mm 1 mps 742 mmHg 84%
    03:00 +26°C° 1.6 mm 1 mps 742 mmHg 85%
    04:00 +26°C° 1.6 mm 1 mps 742 mmHg 85%
    05:00 +26°C° 1.6 mm 1 mps 742 mmHg 85%
    06:00 +26°C° 1.6 mm 1 mps 743 mmHg 85%
    07:00 +27°C° 1.6 mm 1 mps 743 mmHg 85%
    08:00 +28°C° 0.5 mm 2 mps 743 mmHg 81%
    09:00 +29°C° 0.5 mm 2 mps 743 mmHg 78%
    10:00 +30°C° 0.5 mm 2 mps 744 mmHg 75%
    11:00 +31°C° 0.2 mm 3 mps 743 mmHg 71%
    12:00 +33°C° 0.2 mm 3 mps 742 mmHg 67%
    13:00 +34°C° 0.2 mm 3 mps 741 mmHg 64%
    14:00 +33°C° 0.7 mm 3 mps 740 mmHg 66%
    15:00 +32°C° 0.7 mm 2 mps 740 mmHg 69%
    16:00 +31°C° 0.7 mm 2 mps 740 mmHg 72%
    17:00 +30°C° 0.8 mm 2 mps 740 mmHg 76%
    18:00 +29°C° 0.8 mm 1 mps 740 mmHg 80%
    19:00 +28°C° 0.8 mm 1 mps 741 mmHg 84%
    20:00 +27°C° 0.5 mm 1 mps 741 mmHg 82%
    21:00 +27°C° 0.5 mm 1 mps 741 mmHg 81%
    22:00 +27°C° 0.5 mm 1 mps 742 mmHg 80%
    23:00 +27°C° 0.9 mm 1 mps 742 mmHg 80%

    Tomorrow, 17 November, Saturday

    Time Temperature Precipitation Wind Pressure Humidity
    00:00 +26°C° 0.9 mm 1 mps 742 mmHg 79%
    01:00 +26°C° 0.9 mm 1 mps 742 mmHg 79%
    02:00 +26°C° 0.9 mm 1 mps 742 mmHg 80%
    03:00 +26°C° 0.9 mm 1 mps 742 mmHg 81%
    04:00 +25°C° 0.9 mm 1 mps 741 mmHg 82%
    05:00 +26°C° 0.8 mm 1 mps 742 mmHg 82%
    06:00 +26°C° 0.8 mm 2 mps 743 mmHg 82%
    07:00 +27°C° 0.8 mm 2 mps 743 mmHg 82%
    08:00 +28°C° 0.5 mm 2 mps 743 mmHg 79%
    09:00 +29°C° 0.5 mm 3 mps 744 mmHg 75%
    10:00 +31°C° 0.5 mm 3 mps 744 mmHg 72%
    11:00 +31°C° 0.7 mm 3 mps 743 mmHg 71%
    12:00 +31°C° 0.7 mm 3 mps 742 mmHg 70%
    13:00 +33°C° 0.7 mm 3 mps 741 mmHg 68%
    14:00 +31°C° 0.5 mm 3 mps 741 mmHg 71%
    15:00 +31°C° 0.5 mm 2 mps 740 mmHg 74%
    16:00 +30°C° 0.5 mm 2 mps 740 mmHg 77%
    17:00 +29°C° 0.4 mm 2 mps 740 mmHg 81%
    18:00 +28°C° 0.4 mm 2 mps 741 mmHg 85%
    19:00 +27°C° 0.4 mm 1 mps 741 mmHg 90%
    20:00 +27°C° 1.4 mm 1 mps 742 mmHg 88%
    21:00 +27°C° 1.4 mm 2 mps 742 mmHg 87%
    22:00 +26°C° 1.4 mm 2 mps 743 mmHg 86%
    23:00 +26°C° 1.7 mm 2 mps 743 mmHg 85%

    Day after tomorrow, 18 November, Sunday

    Time Temperature Precipitation Wind Pressure Humidity
    00:00 +26°C° 1.7 mm 2 mps 742 mmHg 83%
    01:00 +26°C° 1.7 mm 1 mps 742 mmHg 82%
    02:00 +26°C° 2.1 mm 1 mps 742 mmHg 83%
    03:00 +26°C° 2.1 mm 1 mps 742 mmHg 85%
    04:00 +25°C° 2.1 mm 1 mps 742 mmHg 86%
    05:00 +26°C° 1.3 mm 1 mps 742 mmHg 86%
    06:00 +26°C° 1.3 mm 1 mps 742 mmHg 85%
    07:00 +26°C° 1.3 mm 1 mps 743 mmHg 85%
    08:00 +28°C° 0.5 mm 2 mps 743 mmHg 80%
    09:00 +29°C° 0.5 mm 2 mps 744 mmHg 76%
    10:00 +30°C° 0.5 mm 2 mps 744 mmHg 71%
    11:00 +31°C° 1 mm 2 mps 743 mmHg 69%
    12:00 +32°C° 1 mm 2 mps 742 mmHg 67%
    13:00 +34°C° 1 mm 2 mps 741 mmHg 65%
    14:00 +32°C° 1 mm 2 mps 741 mmHg 67%
    15:00 +32°C° 1 mm 2 mps 740 mmHg 69%
    16:00 +31°C° 1 mm 2 mps 740 mmHg 71%
    17:00 +30°C° 0.8 mm 2 mps 740 mmHg 75%
    18:00 +29°C° 0.8 mm 1 mps 741 mmHg 79%
    19:00 +27°C° 0.8 mm 1 mps 741 mmHg 83%
    20:00 +27°C° 1.1 mm 1 mps 742 mmHg 82%
    21:00 +27°C° 1.1 mm 1 mps 742 mmHg 80%
    22:00 +26°C° 1.1 mm 1 mps 743 mmHg 79%
    23:00 +26°C° 1.1 mm 1 mps 742 mmHg 78%

    19 November, Monday

    Time Temperature Precipitation Wind Pressure Humidity
    00:00 +26°C° 1.1 mm 1 mps 742 mmHg 77%
    01:00 +25°C° 1.1 mm 1 mps 742 mmHg 76%
    02:00 +25°C° 1.1 mm 1 mps 742 mmHg 78%
    03:00 +25°C° 1.1 mm 1 mps 742 mmHg 80%
    04:00 +25°C° 1.1 mm 1 mps 742 mmHg 81%
    05:00 +25°C° 0.3 mm 1 mps 742 mmHg 80%
    06:00 +26°C° 0.3 mm 1 mps 743 mmHg 78%
    07:00 +27°C° 0.3 mm 1 mps 743 mmHg 77%
    08:00 +29°C° 0.1 mm 2 mps 743 mmHg 72%
    09:00 +30°C° 0.1 mm 2 mps 743 mmHg 67%
    10:00 +33°C° 0.1 mm 3 mps 744 mmHg 63%
    11:00 +33°C° 0.6 mm 3 mps 743 mmHg 62%
    12:00 +34°C° 0.6 mm 3 mps 742 mmHg 62%
    13:00 +34°C° 0.6 mm 3 mps 741 mmHg 61%
    14:00 +34°C° 0.6 mm 2 mps 740 mmHg 63%
    15:00 +34°C° 0.6 mm 2 mps 740 mmHg 65%
    16:00 +32°C° 0.6 mm 2 mps 739 mmHg 68%
    17:00 +31°C° 1 mm 2 mps 740 mmHg 72%
    18:00 +29°C° 1 mm 1 mps 740 mmHg 77%
    19:00 +28°C° 1 mm 1 mps 741 mmHg 82%
    20:00 +27°C° 1.2 mm 1 mps 741 mmHg 81%
    21:00 +27°C° 1.2 mm 1 mps 742 mmHg 80%
    22:00 +27°C° 1.2 mm 1 mps 742 mmHg 79%
    23:00 +26°C° 0.5 mm 1 mps 742 mmHg 77%

    20 November, Tuesday

    Time Temperature Precipitation Wind Pressure Humidity
    00:00 +26°C° 0.5 mm 1 mps 742 mmHg 75%
    01:00 +26°C° 0.5 mm 1 mps 741 mmHg 73%
    02:00 +26°C° 0.8 mm 1 mps 741 mmHg 75%
    03:00 +25°C° 0.8 mm 1 mps 742 mmHg 76%
    04:00 +25°C° 0.8 mm 1 mps 742 mmHg 77%
    05:00 +26°C° 0.3 mm 1 mps 742 mmHg 77%
    06:00 +26°C° 0.3 mm 1 mps 743 mmHg 76%
    07:00 +27°C° 0.3 mm 2 mps 743 mmHg 76%
    08:00 +28°C° 0.1 mm 2 mps 744 mmHg 71%
    09:00 +30°C° 0.1 mm 2 mps 744 mmHg 67%
    10:00 +33°C° 0.1 mm 3 mps 744 mmHg 62%
    11:00 +33°C° 0.2 mm 3 mps 743 mmHg 61%
    12:00 +34°C° 0.2 mm 3 mps 742 mmHg 60%
    13:00 +35°C° 0.2 mm 3 mps 741 mmHg 58%
    14:00 +34°C° 0.4 mm 2 mps 740 mmHg 62%
    15:00 +32°C° 0.4 mm 2 mps 740 mmHg 65%
    16:00 +32°C° 0.4 mm 2 mps 740 mmHg 68%
    17:00 +30°C° 0.6 mm 2 mps 740 mmHg 73%
    18:00 +29°C° 0.6 mm 1 mps 741 mmHg 78%
    19:00 +28°C° 0.6 mm 1 mps 742 mmHg 83%
    20:00 +27°C° 0.8 mm 1 mps 742 mmHg 82%
    21:00 +27°C° 0.8 mm 1 mps 742 mmHg 81%
    22:00 +27°C° 0.8 mm 1 mps 743 mmHg 81%
    23:00 +26°C° 0.6 mm 1 mps 742 mmHg 79%

    21 November, Wednesday

    Time Temperature Precipitation Wind Pressure Humidity
    00:00 +26°C° 0.6 mm 1 mps 742 mmHg 77%
    01:00 +26°C° 0.6 mm 1 mps 742 mmHg 74%
    02:00 +26°C° 0.6 mm 1 mps 742 mmHg 74%
    03:00 +25°C° 0.6 mm 1 mps 742 mmHg 73%
    04:00 +25°C° 0.6 mm 1 mps 742 mmHg 72%
    05:00 +26°C° 0.4 mm 1 mps 743 mmHg 72%
    06:00 +27°C° 0.4 mm 1 mps 743 mmHg 71%
    07:00 +27°C° 0.4 mm 1 mps 744 mmHg 70%
    08:00 +29°C° 0.2 mm 1 mps 744 mmHg 69%
    09:00 +30°C° 0.2 mm 2 mps 744 mmHg 68%
    10:00 +31°C° 0.2 mm 2 mps 744 mmHg 67%
    11:00 +32°C° 0.7 mm 2 mps 743 mmHg 66%
    12:00 +32°C° 0.7 mm 2 mps 742 mmHg 65%
    13:00 +34°C° 0.7 mm 2 mps 741 mmHg 64%
    14:00 +32°C° 0.1 mm 2 mps 741 mmHg 67%
    15:00 +32°C° 0.1 mm 2 mps 741 mmHg 69%
    16:00 +31°C° 0.1 mm 2 mps 740 mmHg 72%
    17:00 +30°C° 0.1 mm 1 mps 741 mmHg 76%
    18:00 +29°C° 0.1 mm 1 mps 741 mmHg 81%
    19:00 +27°C° 0.1 mm 1 mps 742 mmHg 86%
    20:00 +27°C° 0.1 mm 1 mps 742 mmHg 86%
    21:00 +27°C° 0.1 mm 1 mps 742 mmHg 85%
    22:00 +27°C° 0.1 mm 1 mps 743 mmHg 85%
    23:00 +27°C° 0.1 mm 1 mps 742 mmHg 85%
    Show more